FW0579 Weather Reports


Display with metric or nautical units.
time (UTC)temp
F
wind
direction
speed
MPH
gust
MPH
rain 1hr
in
rain 24hr
in
rain mn
in
humidity
%
barometer
mb
20260902090016 56 360 0.0 0.0 0.00 0.00 0.00 80 1016.3
20260902084514 56 360 0.0 0.0 0.00 0.00 0.00 80 1016.3
20260902083011 56 360 0.0 0.0 0.00 0.00 0.00 79 1016.3
20260902081515 57 360 0.0 0.0 0.00 0.00 0.00 78 1016.3
20260902080007 57 39 0.0 0.0 0.00 0.00 0.00 79 1016.3
20260902074504 58 41 0.0 0.0 0.00 0.00 0.00 78 1016.1
20260902073003 58 41 0.0 3.0 0.00 0.00 0.00 78 1016.3
20260902071505 58 41 0.0 3.0 0.00 0.00 0.00 78 1016.4
20260902070104 58 40 0.0 0.0 0.00 0.00 0.00 78 1016.2
20260902064605 59 42 0.0 0.0 0.00 0.00 0.00 77 1016.2
20260902063054 59 339 0.0 4.0 0.00 0.00 0.00 75 1016.3
20260902060048 61 360 0.0 0.0 0.00 0.00 0.00 73 1016.3
20260902054552 62 360 0.0 2.0 0.00 0.00 0.00 72 1016.4
20260902053045 62 255 1.0 3.0 0.00 0.00 0.00 71 1016.4
20260902051543 63 258 3.0 7.0 0.00 0.00 0.00 70 1016.5
20260902050042 63 252 3.0 7.0 0.00 0.00 0.00 69 1016.6
20260902044538 64 254 5.0 9.0 0.00 0.00 0.00 67 1016.5
20260902043036 64 258 3.0 11.0 0.00 0.00 0.00 65 1016.3
20260902041535 64 255 5.0 14.0 0.00 0.00 0.00 63 1016.3
20260902040034 65 265 7.0 15.0 0.00 0.00 0.00 63 1015.9
20260902034534 65 263 7.0 16.0 0.00 0.00 0.00 61 1015.7
20260902033041 65 271 10.0 15.0 0.00 0.00 0.00 61 1015.4
20260902031535 66 249 6.0 13.0 0.00 0.00 0.00 61 1015.2
20260902030033 67 236 9.0 18.0 0.00 0.00 0.00 59 1015.1
20260902024532 67 250 9.0 15.0 0.00 0.00 0.00 58 1014.7
20260902023032 68 273 5.0 16.0 0.00 0.00 0.00 55 1014.6
20260902021536 69 280 7.0 15.0 0.00 0.00 0.00 53 1014.4
20260902020029 70 229 8.0 17.0 0.00 0.00 0.00 51 1014.3
20260902014536 71 255 8.0 16.0 0.00 0.00 0.00 50 1014.1
20260902013029 73 218 10.0 15.0 0.00 0.00 0.00 47 1014.0
20260902011535 74 269 8.0 14.0 0.00 0.00 0.00 46 1013.9
20260902010042 75 290 9.0 14.0 0.00 0.00 0.00 45 1013.8
20260902004532 76 252 6.0 13.0 0.00 0.00 0.00 45 1013.6
20260902003023 77 234 7.0 16.0 0.00 0.00 0.00 44 1013.6
20260902001524 77 234 6.0 12.0 0.00 0.00 0.00 42 1013.7
20260902000036 78 306 5.0 10.0 0.00 0.00 0.00 41 1013.8
20260901234551 77 229 1.0 13.0 0.00 0.00 0.00 42 1013.8
20260901233026 78 275 3.0 9.0 0.00 0.00 0.00 41 1014.0
20260901231538 77 216 4.0 10.0 0.00 0.00 0.00 42 1014.1
20260901230025 77 262 2.0 10.0 0.00 0.00 0.00 43 1014.2
20260901224530 78 271 3.0 10.0 0.00 0.00 0.00 42 1014.4
20260901223033 78 241 4.0 8.0 0.00 0.00 0.00 42 1014.4
20260901221528 76 253 4.0 14.0 0.00 0.00 0.00 44 1014.7
20260901220021 75 219 5.0 13.0 0.00 0.00 0.00 46 1014.8
20260901214522 75 288 4.0 9.0 0.00 0.00 0.00 46 1014.8
20260901213020 74 246 1.0 10.0 0.00 0.00 0.00 48 1014.7
20260901211520 75 235 5.0 9.0 0.00 0.00 0.00 46 1014.7
20260901210019 77 245 2.0 7.0 0.00 0.00 0.00 44 1014.7
20260901204520 76 237 3.0 9.0 0.00 0.00 0.00 46 1014.9
20260901203023 77 285 3.0 9.0 0.00 0.00 0.00 45 1015.1
20260901201515 78 263 0.0 7.0 0.00 0.00 0.00 44 1015.3
20260901200026 75 220 4.0 11.0 0.00 0.00 0.00 47 1015.3
20260901194511 75 252 3.0 6.0 0.00 0.00 0.00 47 1015.3
20260901193010 74 260 4.0 8.0 0.00 0.00 0.00 50 1015.4
20260901191513 73 269 2.0 6.0 0.00 0.00 0.00 52 1015.6
20260901190015 72 215 1.0 5.0 0.00 0.00 0.00 52 1015.6
20260901184504 72 244 2.0 8.0 0.00 0.00 0.00 53 1015.7
20260901183013 72 194 0.0 10.0 0.00 0.00 0.00 53 1015.8
20260901181503 70 360 3.0 7.0 0.00 0.00 0.00 54 1016.0
20260901174558 70 216 1.0 9.0 0.00 0.00 0.00 58 1015.8
20260901173106 69 229 5.0 12.0 0.00 0.00 0.00 59 1016.0
20260901171552 68 231 3.0 9.0 0.00 0.00 0.00 60 1015.7
20260901170050 68 360 3.0 12.0 0.00 0.00 0.00 61 1015.8
20260901164552 67 360 3.0 10.0 0.00 0.00 0.00 62 1015.8
20260901163042 66 225 5.0 12.0 0.00 0.00 0.00 63 1015.6
20260901161637 65 226 3.0 7.0 0.00 0.00 0.00 67 1015.5
20260901160032 63 175 1.0 3.0 0.00 0.00 0.00 71 1015.4
20260901154528 61 206 1.0 5.0 0.00 0.00 0.00 76 1015.3
20260901153035 60 129 0.0 3.0 0.00 0.00 0.00 81 1015.2
20260901151522 58 360 1.0 3.0 0.00 0.00 0.00 85 1014.9
20260901150019 56 360 0.0 3.0 0.00 0.00 0.00 87 1014.8
20260901144525 55 107 0.0 4.0 0.00 0.00 0.00 87 1014.7
20260901143011 54 105 2.0 4.0 0.00 0.00 0.00 88 1014.5
20260901141510 53 98 1.0 4.0 0.00 0.00 0.00 87 1014.3
20260901140004 52 73 1.0 4.0 0.00 0.00 0.00 87 1013.8
20260901134603 52 131 0.0 0.0 0.00 0.00 0.00 87 1013.6
20260901133102 52 131 0.0 0.0 0.00 0.00 0.00 87 1013.6
20260901131600 51 132 1.0 3.0 0.00 0.00 0.00 86 1013.4
20260901130057 51 135 1.0 3.0 0.00 0.00 0.00 86 1013.5
20260901124658 51 136 1.0 3.0 0.00 0.00 0.00 86 1013.4
20260901123058 51 184 0.0 0.0 0.00 0.00 0.00 85 1013.2
20260901121610 51 185 1.0 3.0 0.00 0.00 0.00 85 1013.3
20260901120104 52 206 0.0 0.0 0.00 0.00 0.00 85 1013.4
20260901114600 52 207 0.0 0.0 0.00 0.00 0.00 85 1013.4
20260901113050 52 237 0.0 0.0 0.00 0.00 0.00 84 1013.2
20260901111552 52 360 0.0 0.0 0.00 0.00 0.00 84 1013.1
20260901110048 52 360 0.0 0.0 0.00 0.00 0.00 84 1012.9
20260901104545 53 360 0.0 0.0 0.00 0.00 0.00 84 1012.8
20260901103042 53 360 0.0 0.0 0.00 0.00 0.00 83 1012.9
20260901101540 53 360 0.0 0.0 0.00 0.00 0.00 83 1012.8
20260901100039 54 360 0.0 0.0 0.00 0.00 0.00 83 1012.9
20260901094537 54 360 0.0 0.0 0.00 0.00 0.00 83 1013.0
20260901093043 54 360 0.0 2.0 0.00 0.00 0.00 83 1013.0
20260901091554 54 360 0.0 0.0 0.00 0.00 0.00 82 1013.0